[[{"header":{"parameterUnit":"m.s-1","parameterCategory":1,"la1":30.2991,"la2":30.254,"lo1":-89.0895,"lo2":-89.0444,"dy":0.0017,"dx":0.0017,"nx":28,"ny":28,"refTime":"2023-11-01T21:00:00:Z","depth":0,"parameterNumber":2,"parameterNumberName":"U-component_of_WINDS"},"data":[0,0,0,0,0,0,0,0,0,0,0,0,0,0,0,0,0,0,0,0,0,0,0,0,0,0,0,0,0,0,0,0,0,0,0,0,0,0,0,0,0,0,0,0,0,0,0,0,0,0,0,0,0,0,0,0,0,0,-3.8623,-3.8624,0,-3.8673,-3.8673,-3.8674,-3.8537,-3.8532,-3.8528,-3.8524,-3.8574,-3.8579,-3.8584,0,0,0,0,0,0,0,0,0,0,0,0,0,-3.8408,-3.8413,-3.8623,-3.8624,-3.8624,-3.8672,-3.8673,-3.8674,-3.8537,-3.8532,-3.8527,-3.8522,-3.8572,-3.8578,-3.8585,0,0,0,0,0,0,0,0,0,0,0,0,0,-3.8484,-3.8414,-3.8623,-3.8562,-3.8557,-3.8672,-3.8673,-3.8674,-3.8538,-3.8532,-3.8526,-3.852,-3.857,-3.8578,-3.8586,-3.8762,0,0,-3.861,-3.8613,0,0,0,0,0,0,0,0,-3.848,-3.8492,-3.857,-3.8566,-3.8561,-3.8592,-3.8615,-3.8703,-3.854,-3.8546,-3.8524,-3.8517,-3.8585,-3.8591,-3.8614,-3.8764,-3.8766,-3.8611,-3.8615,-3.8619,-3.8621,0,0,0,0,0,0,0,-3.8475,-3.8489,-3.8642,-3.8572,-3.8566,-3.8531,-3.8535,-3.8631,-3.86,-3.8545,-3.8535,-3.8542,-3.8581,-3.8607,-3.8615,-3.8767,-3.861,-3.8617,-3.8622,-3.8625,-3.9062,-3.9068,0,0,0,0,0,0,-3.8478,-3.8486,-3.8641,-3.8644,-3.8504,-3.8541,-3.8545,-3.8588,-3.8599,-3.8594,-3.8548,-3.8536,-3.8597,-3.8606,-3.8616,-3.8822,-3.8619,-3.8626,-3.8631,-3.9055,-3.9063,-3.9071,0,0,0,0,0,0,-3.8474,-3.8493,-3.8639,-3.8562,-3.8578,-3.8551,-3.8601,-3.8593,-3.8619,-3.8601,-3.8595,-3.858,-3.8592,-3.8605,-3.8726,-3.8822,-3.863,-3.8637,-3.9047,-3.9057,-3.9067,-3.9236,0,0,0,0,0,0,-3.8468,-3.8492,-3.856,-3.8565,-3.8583,-3.875,-3.8607,-3.8598,-3.8633,-3.8618,-3.863,-3.8626,-3.8588,-3.8715,-3.8734,-3.8829,-3.8643,-3.9038,-3.9051,-3.9064,-3.9222,-3.9251,-3.9276,0,0,0,0,0,-3.8461,-3.8606,-3.8564,-3.8583,-3.8667,-3.8756,-3.8766,-3.8719,-3.8641,-3.8708,-3.8697,-3.8626,-3.8808,-3.8729,-3.8749,-3.8848,-3.9032,-3.9048,-3.9063,-3.921,-3.9246,-3.9275,0,0,0,0,0,0,-3.8613,-3.8605,-3.8559,-3.871,-3.8734,-3.8732,-3.8816,-3.8759,-3.8806,-3.879,-3.8729,-3.8733,-3.8866,-3.8868,-3.878,-3.9018,-3.8906,-3.8927,-3.9012,-3.9045,-3.9072,-3.9068,-3.865,0,0,0,0,0,-3.8664,-3.8737,-3.8726,-3.886,-3.8875,-3.8844,-3.8881,-3.8843,-3.8865,-3.8875,-3.8873,-3.8897,-3.896,-3.9002,-3.9059,-3.9221,-3.9222,-3.9299,-3.9326,-3.9348,-3.9367,-3.9451,-3.9486,-3.9121,-3.9121,-3.9121,0,0,-3.877,-3.8775,-3.8825,-3.8891,-3.8905,-3.8982,-3.8853,-3.894,-3.8996,-3.8888,-3.9003,-3.9002,-3.9025,-3.9168,-3.923,-3.9174,-3.9467,-3.9368,-3.9386,-3.9392,-3.9471,-3.9505,-3.9536,-3.9132,-3.913,-3.9128,0,0,-3.9002,-3.9014,-3.9126,-3.9143,-3.9167,-3.9145,-3.9172,-3.9178,-3.9174,-3.9288,-3.9208,-3.9273,-3.9382,-3.9402,-3.9426,-3.9665,-3.9601,-3.9685,-3.9826,-3.9909,-3.9938,-3.9963,-4.0047,-4.0078,-3.9703,-3.9703,-3.9703,0,-3.9131,-3.9244,-3.9191,-3.9283,-3.9314,-3.922,-3.9333,-3.9351,-3.9393,-3.9416,-3.9352,-3.9486,-3.9495,-3.9641,-3.9699,-3.9722,-3.975,-3.9683,-3.9938,-3.9963,-3.9985,-4.0065,-4.0097,-3.9713,-3.9712,-3.9711,-3.971,0,-3.9401,-3.9481,-3.9568,-3.961,-3.9651,-3.9753,-3.9715,-3.9762,-3.972,-3.9705,-3.9821,-3.9828,-3.9884,-3.9915,-3.9876,-4.0055,-4.0019,-3.9948,-3.9835,-4.0031,-4.0105,-4.0135,-3.9727,-3.9724,-3.9721,-3.9718,0,0,-3.9732,-3.9742,-3.9776,-3.9793,-3.9811,-3.9871,-3.9968,-4.0023,-4.0065,-4.0095,-4.0175,-4.0269,-4.0202,-4.023,-4.0191,-4.0264,-4.0452,-4.0183,-4.0183,-4.0233,-4.0649,-4.0703,-4.0739,-4.0409,-4.0415,-4.0419,-4.0647,0,-3.9961,-4.0128,-4.0083,-4.0249,-4.0321,-4.0232,-4.0316,-4.0336,-4.0324,-4.0382,-4.0367,-4.0435,-4.0343,-4.0358,-4.0427,-4.0415,-4.0534,-4.0397,-4.0482,-4.0486,-4.0479,-4.0778,-4.0835,-4.105,-4.0675,-4.068,-4.0684,0,-4.0251,-4.0293,-4.0468,-4.0473,-4.0501,-4.0578,-4.0623,-4.0681,-4.0701,-4.0686,-4.0717,-4.0663,-4.0757,-4.0643,-4.0772,-4.068,-4.0711,-4.071,-4.0717,-4.0723,-4.0597,-4.0792,-4.1117,-4.1149,-4.0729,-4.0725,-4.0722,0,-4.0475,-4.0575,-4.0691,-4.0709,-4.0718,-4.0774,-4.078,-4.0794,-4.083,-4.0869,-4.0891,-4.0942,-4.0969,-4.1009,-4.0969,-4.089,-4.1104,-4.0986,-4.1094,-4.1095,-4.1143,-4.1141,-4.1478,-4.1164,-4.1164,-4.1163,-4.1162,0,-4.0735,-4.0845,-4.0792,-4.0864,-4.0984,-4.093,-4.1049,-4.1045,-4.1058,-4.1127,-4.1052,-4.1118,-4.1061,-4.1122,-4.1091,-4.1202,-4.1215,-4.1205,-4.1196,-4.1212,-4.1214,-4.1232,-4.1216,-4.1171,-4.117,-4.1168,-4.1166,0,-4.1006,-4.0975,-4.1096,-4.1094,-4.1096,-4.1185,-4.1182,-4.1248,-4.123,-4.1317,-4.1335,-4.1306,-4.1373,-4.1337,-4.1407,-4.1386,-4.1529,-4.1499,-4.1523,-4.1515,-4.1624,-4.1614,-4.1985,-4.2031,-4.1688,-4.1691,-4.1694,0,-4.1174,-4.1257,-4.1264,-4.1304,-4.1316,-4.1382,-4.1418,-4.1367,-4.1407,-4.1435,-4.1498,-4.1558,-4.1604,-4.1716,-4.17,-4.1753,-4.1723,-4.185,-4.1731,-4.1744,-4.1725,-4.1721,-4.1728,-4.1874,-4.1878,-4.1881,-4.1884,0,-4.1477,-4.1457,-4.1511,-4.156,-4.1605,-4.1641,-4.167,-4.1708,-4.1657,-4.1706,-4.1774,-4.1809,-4.188,-4.1941,-4.1985,-4.199,-4.1929,-4.1921,-4.1949,-4.1966,-4.1976,-4.1972,-4.1588,-4.1913,-4.191,-4.1908,-4.1907,-4.1905,-4.1701,-4.1769,-4.1785,-4.1847,-4.1864,-4.1893,-4.1955,-4.1944,-4.2,-4.2053,-4.2019,-4.2099,-4.2115,-4.2169,-4.2182,-4.2243,-4.2192,-4.2232,-4.2242,-4.2253,-4.2267,-4.1967,-4.2251,-4.225,-4.2249,-4.2248,-4.2247,0,-4.1999,-4.2004,-4.2062,-4.2106,-4.2155,-4.2092,-4.2122,-4.2167,-4.2238,-4.2258,-4.2305,-4.2382,-4.244,-4.2429,-4.2482,-4.2533,-4.2506,-4.2548,-4.2544,-4.2546,-4.231,-4.2281,-4.2569,-4.2569,-4.2569,-4.2569,-4.2569,-4.2569,-4.2159,-4.2272,-4.2254,-4.2373,-4.2377,-4.2455,-4.2477,-4.2503,-4.2518,-4.2608,-4.2657,-4.2649,-4.2656,-4.2708,-4.2759,-4.2754,-4.2776,-4.2829,-4.2814,-4.2594,-4.2563,-4.2532,-4.2504,-4.2835,-4.2835,-4.3045,-4.3047,-4.3048]},{"header":{"parameterUnit":"m.s-1","parameterCategory":1,"la1":30.2991,"la2":30.254,"lo1":-89.0895,"lo2":-89.0444,"dy":0.0017,"dx":0.0017,"nx":28,"ny":28,"refTime":"2023-11-01T21:00:00:Z","depth":0,"parameterNumber":3,"parameterNumberName":"V-component_of_WINDS"},"data":[0,0,0,0,0,0,0,0,0,0,0,0,0,0,0,0,0,0,0,0,0,0,0,0,0,0,0,0,0,0,0,0,0,0,0,0,0,0,0,0,0,0,0,0,0,0,0,0,0,0,0,0,0,0,0,0,0,0,-6.8514,-6.8515,0,-6.8593,-6.8594,-6.8595,-6.8476,-6.8472,-6.8468,-6.8464,-6.854,-6.8545,-6.8551,0,0,0,0,0,0,0,0,0,0,0,0,0,-6.8254,-6.8259,-6.8514,-6.8515,-6.8516,-6.8593,-6.8594,-6.8595,-6.8477,-6.8472,-6.8467,-6.8462,-6.8538,-6.8545,-6.8552,0,0,0,0,0,0,0,0,0,0,0,0,0,-6.8353,-6.8261,-6.8514,-6.8467,-6.8463,-6.8593,-6.8594,-6.8595,-6.8478,-6.8472,-6.8466,-6.846,-6.8536,-6.8544,-6.8553,-6.873,0,0,-6.858,-6.8583,0,0,0,0,0,0,0,0,-6.8347,-6.8363,-6.8472,-6.847,-6.8466,-6.8519,-6.853,-6.864,-6.848,-6.8472,-6.8464,-6.8457,-6.8537,-6.8546,-6.8574,-6.8734,-6.8737,-6.858,-6.8586,-6.8589,-6.8592,0,0,0,0,0,0,0,-6.8341,-6.8359,-6.8545,-6.8474,-6.8471,-6.8439,-6.8446,-6.855,-6.8538,-6.8472,-6.8464,-6.8475,-6.8534,-6.8566,-6.8575,-6.8738,-6.858,-6.8588,-6.8593,-6.8597,-6.9044,-6.9051,0,0,0,0,0,0,-6.834,-6.8354,-6.8542,-6.8547,-6.8391,-6.8449,-6.8457,-6.8508,-6.8537,-6.8535,-6.8481,-6.847,-6.8554,-6.8565,-6.8577,-6.8784,-6.8589,-6.8598,-6.8603,-6.9038,-6.9046,-6.9053,0,0,0,0,0,0,-6.8335,-6.8359,-6.8539,-6.8448,-6.8469,-6.846,-6.8518,-6.8513,-6.8544,-6.8543,-6.854,-6.8515,-6.8549,-6.8565,-6.8693,-6.8785,-6.8601,-6.8609,-6.903,-6.904,-6.9049,-6.9203,0,0,0,0,0,0,-6.8328,-6.8357,-6.8427,-6.8451,-6.8474,-6.8657,-6.8524,-6.8519,-6.856,-6.8546,-6.8575,-6.8573,-6.8546,-6.868,-6.8701,-6.8794,-6.8616,-6.9021,-6.9034,-6.9046,-6.9189,-6.9217,-6.924,0,0,0,0,0,-6.832,-6.8466,-6.8431,-6.8454,-6.8561,-6.8662,-6.8675,-6.8642,-6.8568,-6.8636,-6.8635,-6.8572,-6.8772,-6.8694,-6.8717,-6.8814,-6.9015,-6.9031,-6.9045,-6.9178,-6.9211,-6.924,0,0,0,0,0,0,-6.8452,-6.8469,-6.843,-6.8589,-6.8625,-6.8642,-6.8727,-6.8679,-6.8735,-6.872,-6.8675,-6.8682,-6.8819,-6.8829,-6.8742,-6.8986,-6.8881,-6.8901,-6.8974,-6.9006,-6.9031,-6.9025,-6.8624,0,0,0,0,0,-6.85,-6.8583,-6.8592,-6.8732,-6.8752,-6.8737,-6.878,-6.8751,-6.8786,-6.88,-6.8808,-6.8843,-6.8913,-6.896,-6.9025,-6.919,-6.9193,-6.9268,-6.9293,-6.9314,-6.9332,-6.9417,-6.945,-6.9102,-6.9102,-6.9102,0,0,-6.86,-6.8619,-6.8674,-6.8759,-6.8783,-6.8868,-6.8751,-6.8845,-6.8906,-6.8813,-6.8935,-6.8943,-6.8977,-6.9125,-6.919,-6.9137,-6.9429,-6.9333,-6.935,-6.9356,-6.9436,-6.9469,-6.9498,-6.9112,-6.911,-6.9109,0,0,-6.8824,-6.8848,-6.8966,-6.8993,-6.9032,-6.9021,-6.9049,-6.9073,-6.9075,-6.9196,-6.9128,-6.9199,-6.9321,-6.9348,-6.9378,-6.9611,-6.9554,-6.9633,-6.9765,-6.9849,-6.9876,-6.99,-6.9981,-7.0011,-6.9651,-6.9651,-6.9651,0,-6.8942,-6.9069,-6.9032,-6.9131,-6.9169,-6.9091,-6.9207,-6.9235,-6.9293,-6.9319,-6.926,-6.9411,-6.9429,-6.958,-6.9637,-6.9665,-6.9693,-6.9629,-6.9876,-6.99,-6.9921,-6.9998,-7.0028,-6.966,-6.9659,-6.9658,-6.9657,0,-6.9211,-6.9299,-6.9389,-6.9448,-6.9496,-6.9604,-6.9581,-6.9634,-6.96,-6.9594,-6.9717,-6.9736,-6.9802,-6.9836,-6.9804,-6.9982,-6.9948,-6.9884,-6.9777,-6.9964,-7.0035,-7.0064,-6.9673,-6.967,-6.9667,-6.9665,0,0,-6.9521,-6.9558,-6.9591,-6.9616,-6.9652,-6.9719,-6.9821,-6.9887,-6.9932,-6.9974,-7.0057,-7.0162,-7.0101,-7.0135,-7.0105,-7.018,-7.0359,-7.0105,-7.0105,-7.015,-7.0553,-7.0601,-7.0635,-7.0322,-7.0328,-7.0332,-7.0549,0,-6.9743,-6.9923,-6.9892,-7.0065,-7.0144,-7.0069,-7.0158,-7.0189,-7.0186,-7.025,-7.0245,-7.032,-7.0236,-7.0256,-7.0325,-7.0323,-7.0439,-7.0307,-7.0396,-7.04,-7.0389,-7.0673,-7.0724,-7.0928,-7.0577,-7.0582,-7.0585,0,-7.0026,-7.008,-7.0261,-7.0283,-7.0315,-7.0396,-7.0452,-7.0516,-7.0548,-7.054,-7.0578,-7.0533,-7.0632,-7.0526,-7.066,-7.0571,-7.0605,-7.0609,-7.0616,-7.0622,-7.0503,-7.0684,-7.0993,-7.1023,-7.0629,-7.0625,-7.0622,0,-7.0232,-7.0349,-7.0472,-7.0495,-7.0525,-7.0583,-7.0597,-7.0623,-7.0664,-7.0712,-7.0738,-7.0797,-7.0829,-7.0875,-7.0847,-7.0772,-7.0985,-7.0877,-7.0979,-7.098,-7.1026,-7.1024,-7.1343,-7.1052,-7.1051,-7.1051,-7.105,0,-7.0482,-7.0595,-7.0564,-7.064,-7.0764,-7.0726,-7.0848,-7.0853,-7.0877,-7.095,-7.0888,-7.0958,-7.0917,-7.0983,-7.0961,-7.1074,-7.1089,-7.1084,-7.1076,-7.1089,-7.1089,-7.111,-7.1094,-7.1059,-7.1057,-7.1056,-7.1054,0,-7.0732,-7.0717,-7.0845,-7.0862,-7.0869,-7.0959,-7.0972,-7.1041,-7.1033,-7.1126,-7.1145,-7.1132,-7.1205,-7.1182,-7.1261,-7.1246,-7.1389,-7.1365,-7.1379,-7.1372,-7.1475,-7.1465,-7.1818,-7.1861,-7.1544,-7.1547,-7.155,0,-7.0893,-7.0978,-7.1004,-7.1049,-7.1069,-7.1143,-7.1184,-7.1149,-7.1194,-7.1235,-7.1299,-7.1367,-7.142,-7.1541,-7.1537,-7.1596,-7.1571,-7.169,-7.1579,-7.1588,-7.157,-7.1565,-7.1572,-7.1712,-7.1716,-7.1719,-7.1721,0,-7.1177,-7.1165,-7.1228,-7.1288,-7.1339,-7.1385,-7.1424,-7.1464,-7.1431,-7.1484,-7.1559,-7.1601,-7.1681,-7.1749,-7.1803,-7.1814,-7.1762,-7.1756,-7.1783,-7.1795,-7.1799,-7.1796,-7.1438,-7.1748,-7.1745,-7.1743,-7.1742,-7.1741,-7.1386,-7.1457,-7.1487,-7.1558,-7.1584,-7.1622,-7.1687,-7.1687,-7.1749,-7.1813,-7.1788,-7.1874,-7.19,-7.1967,-7.1986,-7.2051,-7.2005,-7.2044,-7.2053,-7.2063,-7.2075,-7.1791,-7.2061,-7.206,-7.2059,-7.2059,-7.2058,0,-7.1666,-7.1681,-7.1747,-7.1804,-7.1859,-7.1807,-7.1847,-7.1896,-7.1973,-7.2003,-7.2057,-7.2141,-7.2207,-7.2207,-7.2267,-7.2319,-7.2296,-7.2335,-7.233,-7.2333,-7.2114,-7.2085,-7.2353,-7.2353,-7.2353,-7.2353,-7.2352,-7.2352,-7.1818,-7.1935,-7.1926,-7.2055,-7.2068,-7.2153,-7.218,-7.2213,-7.2237,-7.2335,-7.2389,-7.239,-7.2407,-7.2467,-7.2524,-7.2522,-7.2546,-7.2594,-7.2583,-7.2378,-7.2349,-7.2321,-7.2293,-7.26,-7.2601,-7.2796,-7.2798,-7.28]}]]